Location: Gorrie
(43.8742°N, 81.1087°W)
Time: 02:55:43
(UTC+00:00)

Cosmos 2333 Rocket - Pass Details

Date: 09 December 2025
Orbit: 837 x 865 km, 70.8° (Epoch: 12 January)

Event Time Altitude Azimuth Distance (km) Brightness Sun altitude
Exits shadow 11:10:36 12° 335° (NNW) 2,359 4.1 -16.7°
Maximum altitude 11:16:00 88° 67° (ENE) 868 2.2 -15.8°
Drops below altitude 10° 11:21:44 10° 156° (SSE) 2,485 5.2 -14.8°
Sets 11:24:10 0° 156° (SSE) 3,414 6.0 -14.4°
